EW4120 Weather Reports


time (UTC)temp
C
wind
direction
speed
KPH
gust
KPH
rain 1hr
cm
rain 24hr
cm
rain mn
cm
humidity
%
barometer
mb
20260509152537 19 338 1.6 6.4 0.00 0.00 0.00 84 1012.3
20260509151517 18 315 1.6 4.8 0.00 0.00 0.00 86 1012.4
20260509150537 18 0.0 3.2 0.00 0.00 0.00 88 1012.4
20260509145637 17 0.0 3.2 0.00 0.00 0.00 86 1012.5
20260509144537 17 0.0 4.8 0.00 0.00 0.00 86 1012.4
20260509143517 17 0.0 1.6 0.00 0.00 0.00 86 1012.3
20260509142537 17 0.0 6.4 0.00 0.00 0.00 87 1012.6
20260509141517 17 0.0 3.2 0.00 0.00 0.00 87 1012.6
20260509140617 17 0.0 4.8 0.00 0.00 0.00 87 1012.6
20260509135617 16 0.0 1.6 0.00 0.00 0.00 87 1012.8
20260509134537 16 0.0 0.0 0.00 0.00 0.00 88 1012.7
20260509133517 16 0.0 1.6 0.00 0.00 0.00 90 1013.0
20260509132516 15 0.0 1.6 0.00 0.00 0.00 89 1013.5
20260509131516 15 0.0 1.6 0.00 0.00 0.00 90 1013.7
20260509130557 15 0.0 3.2 0.00 0.00 0.00 92 1013.6
20260509125516 13 0.0 1.6 0.00 0.00 0.00 95 1013.7
20260509124536 13 0.0 1.6 0.00 0.00 0.00 98 1013.7
20260509123516 12 0.0 1.6 0.00 0.00 0.00 98 1013.6
20260509122516 12 0.0 0.0 0.00 0.00 0.00 98 1013.2
20260509121637 11 0.0 0.0 0.00 0.00 0.00 98 1013.4
20260509120536 10 0.0 0.0 0.00 0.00 0.00 98 1013.4
20260509115516 10 0.0 0.0 0.00 0.00 0.00 98 1013.3
20260509114536 9 0.0 0.0 0.00 0.00 0.00 97 1013.1
20260509113516 8 0.0 0.0 0.00 0.00 0.00 97 1013.0
20260509112556 8 0.0 0.0 0.00 0.00 0.00 97 1013.1
20260509111556 8 0.0 0.0 0.00 0.00 0.00 97 1013.2
20260509110516 7 0.0 0.0 0.00 0.00 0.00 97 1013.1
20260509105516 7 0.0 0.0 0.00 0.00 0.00 96 1013.1
20260509104516 6 0.0 0.0 0.00 0.00 0.00 96 1012.7
20260509103616 6 0.0 0.0 0.00 0.00 0.00 96 1012.6
20260509102617 6 0.0 0.0 0.00 0.00 0.00 95 1012.4
20260509101516 6 0.0 0.0 0.00 0.00 0.00 95 1012.4
20260509100536 6 0.0 0.0 0.00 0.00 0.00 95 1012.4
20260509095516 6 0.0 0.0 0.00 0.00 0.00 95 1012.3
20260509094636 6 0.0 0.0 0.00 0.00 0.00 95 1012.3
20260509093536 6 0.0 0.0 0.00 0.00 0.00 95 1012.3
20260509092516 7 0.0 0.0 0.00 0.00 0.00 95 1012.3
20260509091536 7 0.0 0.0 0.00 0.00 0.00 95 1012.5
20260509090536 7 0.0 0.0 0.00 0.00 0.00 95 1012.7
20260509085516 7 0.0 0.0 0.00 0.00 0.00 95 1012.8
20260509084536 7 0.0 0.0 0.00 0.00 0.00 95 1012.9
20260509083516 7 0.0 0.0 0.00 0.00 0.00 95 1012.9
20260509082516 7 0.0 0.0 0.00 0.00 0.00 94 1012.8
20260509081516 7 0.0 0.0 0.00 0.00 0.00 95 1012.9
20260509080556 7 0.0 0.0 0.00 0.00 0.00 94 1012.8
20260509075536 7 0.0 0.0 0.00 0.00 0.00 94 1013.0
20260509074637 7 0.0 0.0 0.00 0.00 0.00 94 1012.9
20260509073536 7 0.0 0.0 0.00 0.00 0.00 94 1013.0
20260509072616 7 0.0 0.0 0.00 0.00 0.00 94 1013.1
20260509071536 7 0.0 0.0 0.00 0.00 0.00 93 1013.3
20260509070516 7 0.0 0.0 0.00 0.00 0.00 93 1013.1
20260509065516 7 0.0 0.0 0.00 0.00 0.00 93 1013.4
20260509064536 8 0.0 0.0 0.00 0.00 0.00 93 1013.4
20260509063536 8 0.0 0.0 0.00 0.00 0.00 93 1013.4
20260509062536 8 0.0 0.0 0.00 0.00 0.00 93 1013.6
20260509061556 8 0.0 0.0 0.00 0.00 0.00 92 1013.8
20260509060516 8 0.0 0.0 0.00 0.00 0.00 92 1014.0
20260509055536 8 0.0 0.0 0.00 0.00 0.00 92 1014.1
20260509054516 8 0.0 0.0 0.00 0.00 0.00 92 1014.1
20260509053516 8 0.0 0.0 0.00 0.00 0.00 92 1014.1
20260509052536 8 0.0 0.0 0.00 0.00 0.00 92 1014.4
20260509051516 8 0.0 0.0 0.00 0.00 0.00 92 1014.6
20260509050536 8 0.0 0.0 0.00 0.00 0.00 92 1014.6
20260509045618 8 0.0 0.0 0.00 0.00 0.00 92 1014.7
20260509044538 8 0.0 0.0 0.00 0.00 0.00 91 1014.8
20260509043518 9 0.0 0.0 0.00 0.00 0.00 90 1014.9
20260509042538 9 0.0 0.0 0.00 0.00 0.00 90 1014.7
20260509041517 9 0.0 0.0 0.00 0.00 0.00 90 1014.7
20260509040558 9 0.0 0.0 0.00 0.00 0.00 89 1014.7
20260509035536 9 0.0 0.0 0.00 0.00 0.00 88 1014.7
20260509034536 9 0.0 0.0 0.00 0.00 0.00 88 1014.7
20260509033516 10 0.0 0.0 0.00 0.00 0.00 87 1014.6
20260509032516 10 0.0 0.0 0.00 0.00 0.00 87 1014.6
20260509031616 10 0.0 0.0 0.00 0.00 0.00 86 1014.6
20260509030516 10 0.0 0.0 0.00 0.00 0.00 85 1014.7
20260509025516 10 0.0 0.0 0.00 0.00 0.00 84 1014.9
20260509024516 10 0.0 0.0 0.00 0.00 0.00 84 1014.8
20260509022516 10 0.0 0.0 0.00 0.00 0.00 84 1014.9
20260509021636 10 0.0 0.0 0.00 0.00 0.00 84 1014.8
20260509020556 10 0.0 0.0 0.00 0.00 0.00 83 1014.8
20260509015516 10 0.0 0.0 0.00 0.00 0.00 82 1014.7
20260509014516 10 0.0 0.0 0.00 0.00 0.00 81 1014.7
20260509013516 11 0.0 0.0 0.00 0.00 0.00 80 1014.6
20260509012516 11 0.0 0.0 0.00 0.00 0.00 79 1014.6
20260509011516 11 0.0 0.0 0.00 0.00 0.00 79 1014.4
20260509010516 11 0.0 0.0 0.00 0.00 0.00 78 1014.4
20260509005536 12 0.0 0.0 0.00 0.00 0.00 77 1014.3
20260509004556 12 0.0 0.0 0.00 0.00 0.00 74 1014.2
20260509003536 13 0.0 0.0 0.00 0.00 0.00 72 1014.0
20260509002516 13 0.0 0.0 0.00 0.00 0.00 71 1014.1
20260509001518 15 0.0 0.0 0.00 0.00 0.00 70 1013.8
20260509000518 15 0.0 0.0 0.00 0.00 0.00 68 1013.9
20260508235618 16 0.0 0.0 0.00 0.00 0.00 63 1013.9
20260508234658 17 0.0 0.0 0.00 0.00 0.00 61 1013.9
20260508233536 17 0.0 0.0 0.00 0.00 0.00 58 1014.1
20260508232538 18 0.0 0.0 0.00 0.00 0.00 54 1014.1
20260508231517 19 0.0 0.0 0.00 0.00 0.00 51 1014.2
20260508230538 20 0.0 1.6 0.00 0.00 0.00 48 1014.1
20260508225517 21 0.0 1.6 0.00 0.00 0.00 43 1014.2
20260508224517 21 0.0 1.6 0.00 0.00 0.00 40 1014.2
20260508223537 21 0.0 3.2 0.00 0.00 0.00 40 1014.2
20260508222538 20 0.0 1.6 0.00 0.00 0.00 44 1014.2
20260508221517 21 315 1.6 6.4 0.00 0.00 0.00 40 1014.0
20260508220517 21 315 1.6 6.4 0.00 0.00 0.00 40 1013.9
20260508215537 21 0.0 3.2 0.00 0.00 0.00 43 1013.8
20260508214558 22 293 1.6 11.3 0.00 0.00 0.00 41 1014.1
20260508213517 22 293 1.6 6.4 0.00 0.00 0.00 42 1014.1
20260508212517 22 315 1.6 6.4 0.00 0.00 0.00 43 1014.3
20260508211517 22 0.0 3.2 0.00 0.00 0.00 39 1014.1
20260508210517 22 0.0 3.2 0.00 0.00 0.00 43 1014.1
20260508205517 22 315 1.6 4.8 0.00 0.00 0.00 40 1014.3
20260508204557 22 0.0 1.6 0.00 0.00 0.00 41 1014.3
20260508203517 22 0.0 6.4 0.00 0.00 0.00 44 1014.4
20260508202517 22 315 1.6 8.0 0.00 0.00 0.00 39 1015.0
20260508201517 22 0.0 1.6 0.00 0.00 0.00 40 1014.9
20260508200537 22 315 1.6 9.7 0.00 0.00 0.00 40 1014.9
20260508195618 22 45 1.6 4.8 0.00 0.00 0.00 44 1015.0
20260508194517 22 293 1.6 4.8 0.00 0.00 0.00 41 1015.0
20260508193517 21 0.0 3.2 0.00 0.00 0.00 37 1015.2
20260508192557 22 23 1.6 6.4 0.00 0.00 0.00 41 1015.4
20260508191537 21 315 1.6 8.0 0.00 0.00 0.00 48 1015.6
20260508190537 21 0.0 6.4 0.00 0.00 0.00 39 1015.4
20260508185517 21 315 1.6 6.4 0.00 0.00 0.00 40 1015.6
20260508184517 21 0.0 6.4 0.00 0.00 0.00 44 1015.8
20260508183537 21 293 1.6 6.4 0.00 0.00 0.00 45 1015.9
20260508182517 20 0.0 1.6 0.00 0.00 0.00 43 1015.8
20260508181517 20 113 1.6 3.2 0.00 0.00 0.00 42 1016.1
20260508180517 20 23 1.6 8.0 0.00 0.00 0.00 43 1016.2
20260508175537 20 315 1.6 6.4 0.00 0.00 0.00 48 1016.3
20260508174537 20 293 1.6 3.2 0.00 0.00 0.00 45 1016.5
20260508173537 20 0.0 4.8 0.00 0.00 0.00 44 1016.7
20260508172557 18 270 1.6 3.2 0.00 0.00 0.00 41 1016.7
20260508171557 18 293 1.6 4.8 0.00 0.00 0.00 42 1016.8
20260508170517 18 23 1.6 6.4 0.00 0.00 0.00 42 1016.8
20260508165517 18 90 1.6 11.3 0.00 0.00 0.00 46 1016.9
20260508164517 18 45 3.2 9.7 0.00 0.00 0.00 48 1017.1
20260508163517 18 0.0 3.2 0.00 0.00 0.00 47 1017.4
20260508162517 18 0.0 3.2 0.00 0.00 0.00 48 1017.6
20260508161517 17 45 3.2 8.0 0.00 0.00 0.00 47 1017.7
20260508160517 18 0.0 3.2 0.00 0.00 0.00 53 1017.7
20260508155517 17 23 1.6 4.8 0.00 0.00 0.00 55 1017.9
20260508154517 17 23 1.6 4.8 0.00 0.00 0.00 52 1018.0
20260508153517 17 270 1.6 3.2 0.00 0.00 0.00 51 1018.0